Date,TemperatureHighF,TemperatureAvgF,TemperatureLowF,DewpointHighF,DewpointAvgF,DewpointLowF,HumidityHigh,HumidityAvg,HumidityLow,PressureMaxIn,PressureMinIn,WindSpeedMaxMPH,WindSpeedAvgMPH,GustSpeedMaxMPH,PrecipitationSumIn
2013-9-1,106.5,91.1,77.0,65.1,60.3,52.3,63,39,18,29.82,29.70,11,2,17,0.00
2013-9-2,98.4,86.1,77.5,66.9,63.9,60.6,68,49,30,29.95,29.77,11,2,12,0.00
2013-9-3,100.2,84.2,70.9,65.3,58.2,44.4,81,47,18,29.99,29.85,12,1,17,0.00
2013-9-4,102.9,82.9,61.5,63.5,51.7,40.8,74,40,13,30.03,29.91,9,1,10,0.00
2013-9-5,101.8,86.8,72.9,68.0,63.9,56.5,76,49,26,30.04,29.92,10,2,11,0.00
2013-9-6,99.9,85.5,72.9,68.0,63.3,60.1,75,50,29,30.04,29.89,12,1,12,0.00
2013-9-7,97.2,85.3,75.0,66.4,62.5,58.6,66,48,29,29.98,29.86,13,2,16,0.00
2013-9-8,97.5,83.4,68.9,69.1,63.5,58.3,86,55,28,29.93,29.79,14,2,14,0.00
2013-9-9,93.9,82.2,67.8,68.0,63.4,58.6,88,56,33,29.94,29.83,17,3,20,0.00
2013-9-10,93.0,80.7,72.1,69.4,65.4,61.3,83,62,37,30.04,29.92,14,3,17,0.00
2013-9-11,95.0,82.0,69.3,70.2,63.2,56.3,87,57,30,30.08,29.94,13,2,15,0.00
2013-9-12,97.5,80.1,68.4,74.7,64.1,57.9,91,61,30,30.04,29.89,10,1,14,0.33
2013-9-13,93.6,80.3,71.8,73.6,67.9,63.1,90,68,38,29.94,29.80,14,1,14,0.12
2013-9-14,95.2,81.1,71.4,70.0,66.6,61.0,85,63,35,29.91,29.80,10,2,12,0.00
2013-9-15,96.1,83.4,71.8,68.4,64.3,61.7,76,54,35,29.98,29.87,9,2,15,0.00
2013-9-16,93.7,81.7,71.1,69.1,65.5,61.2,82,60,36,30.04,29.91,13,1,14,0.00
2013-9-17,87.4,78.8,70.0,70.0,65.8,59.7,89,66,47,30.04,29.91,6,0,7,0.00
2013-9-18,96.6,84.8,76.3,69.1,62.1,50.2,74,50,21,29.96,29.79,14,3,17,0.00
2013-9-19,83.8,77.8,72.1,72.7,67.2,58.8,94,71,48,29.93,29.83,10,1,11,0.05
2013-9-20,72.0,68.8,64.9,70.2,67.3,61.9,97,95,88,29.98,29.83,10,2,12,1.86
2013-9-21,82.0,68.0,56.1,62.2,55.3,49.1,93,68,33,30.04,29.87,8,2,10,0.01
2013-9-22,84.6,68.5,52.0,59.7,51.5,43.9,97,62,26,29.92,29.76,9,1,10,0.00
2013-9-23,87.6,71.5,54.0,55.2,51.2,46.2,90,54,25,29.81,29.69,14,2,14,0.00
2013-9-24,92.1,75.0,58.8,60.6,54.3,46.8,89,53,23,29.93,29.78,9,1,13,0.00
2013-9-25,93.4,76.8,57.6,60.1,56.2,49.3,85,53,29,29.87,29.70,11,2,13,0.00
2013-9-26,93.0,81.0,72.0,61.0,57.1,50.7,64,46,29,29.81,29.71,16,4,18,0.00
2013-9-27,89.8,79.2,69.3,70.9,66.5,53.2,90,66,47,29.84,29.73,16,4,19,0.00
2013-9-28,79.5,69.2,59.7,71.6,65.1,56.8,95,87,71,30.08,29.76,16,3,20,0.51
2013-9-29,78.8,65.2,54.3,57.0,52.7,45.5,96,68,32,30.11,29.93,9,1,11,0.00
2013-9-30,89.2,70.1,52.2,59.0,52.6,49.1,93,60,27,29.93,29.75,11,2,12,0.00